Location: Kaiser
(34.0939°N, 117.4889°W)
Time: 20:56:09
(UTC+00:00)

ADEOS - Pass Details

Date: 29 October 2020
Orbit: 793 x 794 km, 98.9° (Epoch: 25 November)

Event Time Altitude Azimuth Distance (km) Brightness Sun altitude
Rises 12:42:04 0° 7° (N) 3,299 6.8 -18.2°
Reaches altitude 10° 12:44:26 10° 3° (N) 2,366 6.0 -17.7°
Maximum altitude 12:49:31 53° 287° (WNW) 966 3.6 -16.7°
Drops below altitude 10° 12:54:33 10° 211° (SSW) 2,353 5.8 -15.6°
Sets 12:56:54 0° 207° (SSW) 3,278 6.6 -15.1°
